| time (UTC) | temp C | wind direction | speed KPH | gust KPH | rain 1hr cm | rain 24hr cm | rain mn cm | humidity % | barometer mb |
| 20260507094550 | 15 | 151 | 1.6 | 8.0 | 0.00 | 0.00 | 0.00 | 56 | 1016.8 |
| 20260507093048 | 15 | 268 | 0.0 | 9.7 | 0.00 | 0.00 | 0.00 | 56 | 1016.8 |
| 20260507091546 | 15 | 129 | 0.0 | 6.4 | 0.00 | 0.00 | 0.00 | 58 | 1016.9 |
| 20260507090039 | 14 | 177 | 1.6 | 9.7 | 0.00 | 0.00 | 0.00 | 59 | 1016.9 |
| 20260507084532 | 14 | 135 | 4.8 | 11.3 | 0.00 | 0.00 | 0.00 | 53 | 1016.9 |
| 20260507083032 | 13 | 91 | 3.2 | 8.0 | 0.00 | 0.00 | 0.00 | 4 | 1016.9 |
| 20260507081523 | 11 | 95 | 3.2 | 12.9 | 0.00 | 0.00 | 0.00 | 1 | 1016.9 |
| 20260507080022 | 9 | 94 | 1.6 | 6.4 | 0.00 | 0.00 | 0.00 | 1 | 1016.9 |
| 20260507074514 | 8 | 99 | 0.0 | 4.8 | 0.00 | 0.00 | 0.00 | 1 | 1016.8 |
| 20260507073011 | 7 | 37 | 3.2 | 8.0 | 0.00 | 0.00 | 0.00 | 1 | 1016.8 |
| 20260507071505 | 7 | 56 | 3.2 | 6.4 | 0.00 | 0.00 | 0.00 | 1 | 1016.8 |
| 20260507070002 | 6 | 49 | 1.6 | 4.8 | 0.00 | 0.00 | 0.00 | 1 | 1016.8 |
| 20260507064600 | 5 | 55 | 0.0 | 3.2 | 0.00 | 0.00 | 0.00 | 1 | 1016.8 |
| 20260507063057 | 5 | 317 | 0.0 | 0.0 | 0.00 | 0.00 | 0.00 | 1 | 1016.8 |
| 20260507061548 | 4 | 310 | 0.0 | 0.0 | 0.00 | 0.00 | 0.00 | 1 | 1016.8 |
| 20260507060043 | 4 | 295 | 0.0 | 3.2 | 0.00 | 0.00 | 0.00 | 1 | 1016.7 |
| 20260507054540 | 3 | 295 | 0.0 | 3.2 | 0.00 | 0.00 | 0.00 | 1 | 1016.6 |
| 20260507053034 | 3 | 302 | 0.0 | 1.6 | 0.00 | 0.00 | 0.00 | 1 | 1016.5 |
| 20260507051532 | 3 | 302 | 0.0 | 1.6 | 0.00 | 0.00 | 0.00 | 1 | 1016.4 |
| 20260507050028 | 3 | 337 | 0.0 | 0.0 | 0.00 | 0.00 | 0.00 | 1 | 1016.4 |
| 20260507044519 | 4 | 337 | 0.0 | 0.0 | 0.00 | 0.00 | 0.00 | 1 | 1016.2 |
| 20260507043022 | 4 | 337 | 0.0 | 0.0 | 0.00 | 0.00 | 0.00 | 1 | 1016.1 |
| 20260507041511 | 4 | 337 | 0.0 | 0.0 | 0.00 | 0.00 | 0.00 | 1 | 1016.1 |
| 20260507040010 | 5 | 337 | 0.0 | 0.0 | 0.00 | 0.00 | 0.00 | 1 | 1016.2 |
| 20260507034503 | 5 | 337 | 0.0 | 0.0 | 0.00 | 0.00 | 0.00 | 1 | 1016.2 |
| 20260507033105 | 5 | 337 | 0.0 | 0.0 | 0.00 | 0.00 | 0.00 | 1 | 1016.1 |
| 20260507031554 | 5 | 337 | 0.0 | 0.0 | 0.00 | 0.00 | 0.00 | 1 | 1016.2 |
| 20260507030049 | 5 | 337 | 0.0 | 0.0 | 0.00 | 0.00 | 0.00 | 1 | 1016.1 |
| 20260507024551 | 6 | 337 | 0.0 | 0.0 | 0.00 | 0.00 | 0.00 | 1 | 1016.1 |
| 20260507023047 | 6 | 337 | 0.0 | 0.0 | 0.00 | 0.00 | 0.00 | 1 | 1016.0 |
| 20260507021538 | 6 | 337 | 0.0 | 3.2 | 0.00 | 0.00 | 0.00 | 1 | 1016.1 |
| 20260507020045 | 6 | 343 | 0.0 | 3.2 | 0.00 | 0.00 | 0.00 | 1 | 1015.9 |
| 20260507014531 | 6 | 343 | 0.0 | 0.0 | 0.00 | 0.00 | 0.00 | 1 | 1015.8 |
| 20260507013041 | 6 | 343 | 0.0 | 0.0 | 0.00 | 0.00 | 0.00 | 1 | 1015.8 |
| 20260507011519 | 7 | 343 | 0.0 | 1.6 | 0.00 | 0.00 | 0.00 | 1 | 1015.9 |
| 20260507010023 | 7 | 343 | 0.0 | 1.6 | 0.00 | 0.00 | 0.00 | 1 | 1015.9 |
| 20260507004509 | 7 | 343 | 0.0 | 1.6 | 0.00 | 0.00 | 0.00 | 1 | 1015.9 |
| 20260507003006 | 7 | 343 | 0.0 | 1.6 | 0.00 | 0.00 | 0.00 | 1 | 1015.9 |
| 20260507001501 | 8 | 343 | 0.0 | 1.6 | 0.00 | 0.00 | 0.00 | 1 | 1016.0 |
| 20260507000058 | 8 | 324 | 0.0 | 3.2 | 0.00 | 0.00 | 0.00 | 1 | 1016.0 |
| 20260506234553 | 8 | 338 | 0.0 | 3.2 | 0.00 | 0.00 | 0.00 | 5 | 1015.9 |
| 20260506233102 | 8 | 333 | 0.0 | 3.2 | 0.00 | 0.00 | 0.00 | 14 | 1015.7 |
| 20260506231549 | 8 | 335 | 0.0 | 3.2 | 0.00 | 0.00 | 0.00 | 20 | 1015.7 |
| 20260506230048 | 8 | 343 | 0.0 | 3.2 | 0.00 | 0.00 | 0.00 | 26 | 1015.7 |
| 20260506224538 | 9 | 348 | 0.0 | 3.2 | 0.00 | 0.00 | 0.00 | 30 | 1015.7 |
| 20260506223041 | 9 | 19 | 0.0 | 4.8 | 0.00 | 0.00 | 0.00 | 34 | 1015.7 |
| 20260506221529 | 10 | 37 | 0.0 | 4.8 | 0.00 | 0.00 | 0.00 | 40 | 1015.6 |
| 20260506220026 | 10 | 17 | 1.6 | 4.8 | 0.00 | 0.00 | 0.00 | 45 | 1015.5 |
| 20260506214535 | 10 | 34 | 1.6 | 8.0 | 0.00 | 0.00 | 0.00 | 50 | 1015.4 |
| 20260506213019 | 10 | 51 | 0.0 | 6.4 | 0.00 | 0.00 | 0.00 | 53 | 1015.4 |
| 20260506211513 | 10 | 19 | 1.6 | 9.7 | 0.00 | 0.00 | 0.00 | 56 | 1015.3 |
| 20260506210008 | 10 | 54 | 1.6 | 6.4 | 0.00 | 0.00 | 0.00 | 58 | 1015.2 |
| 20260506204503 | 10 | 353 | 1.6 | 8.0 | 0.00 | 0.00 | 0.00 | 61 | 1015.2 |
| 20260506203100 | 10 | 324 | 1.6 | 6.4 | 0.00 | 0.00 | 0.00 | 62 | 1015.1 |
| 20260506201555 | 10 | 22 | 1.6 | 8.0 | 0.00 | 0.00 | 0.00 | 62 | 1014.9 |
| 20260506200051 | 10 | 348 | 1.6 | 6.4 | 0.00 | 0.00 | 0.00 | 62 | 1014.9 |
| 20260506194547 | 11 | 329 | 0.0 | 6.4 | 0.00 | 0.00 | 0.00 | 61 | 1014.7 |
| 20260506193040 | 11 | 348 | 3.2 | 8.0 | 0.00 | 0.00 | 0.00 | 61 | 1014.5 |
| 20260506191540 | 11 | 35 | 4.8 | 9.7 | 0.00 | 0.00 | 0.00 | 61 | 1014.4 |
| 20260506190031 | 11 | 306 | 3.2 | 14.5 | 0.00 | 0.00 | 0.00 | 61 | 1014.4 |
| 20260506184540 | 11 | 295 | 4.8 | 8.0 | 0.00 | 0.00 | 0.00 | 61 | 1014.3 |
| 20260506183030 | 11 | 312 | 3.2 | 9.7 | 0.00 | 0.00 | 0.00 | 61 | 1014.2 |
| 20260506181517 | 11 | 15 | 1.6 | 6.4 | 0.00 | 0.00 | 0.00 | 61 | 1014.1 |
| 20260506180012 | 11 | 324 | 3.2 | 9.7 | 0.00 | 0.00 | 0.00 | 60 | 1013.9 |
| 20260506174507 | 12 | 14 | 3.2 | 9.7 | 0.00 | 0.00 | 0.00 | 60 | 1013.6 |
| 20260506173003 | 12 | 309 | 1.6 | 9.7 | 0.00 | 0.00 | 0.00 | 59 | 1013.7 |
| 20260506171605 | 12 | 293 | 6.4 | 12.9 | 0.00 | 0.00 | 0.00 | 59 | 1013.6 |
| 20260506170056 | 12 | 337 | 4.8 | 12.9 | 0.00 | 0.00 | 0.00 | 58 | 1013.5 |
| 20260506164550 | 12 | 324 | 3.2 | 14.5 | 0.00 | 0.00 | 0.00 | 59 | 1013.5 |
| 20260506163046 | 13 | 332 | 6.4 | 16.1 | 0.00 | 0.00 | 0.00 | 58 | 1013.6 |
| 20260506161546 | 13 | 324 | 3.2 | 14.5 | 0.00 | 0.00 | 0.00 | 57 | 1013.5 |
| 20260506160037 | 13 | 358 | 9.7 | 17.7 | 0.00 | 0.00 | 0.00 | 57 | 1013.5 |
| 20260506154533 | 13 | 337 | 3.2 | 17.7 | 0.00 | 0.00 | 0.00 | 56 | 1013.6 |
| 20260506153028 | 13 | 309 | 3.2 | 12.9 | 0.00 | 0.00 | 0.00 | 55 | 1013.7 |
| 20260506151522 | 14 | 46 | 6.4 | 20.9 | 0.00 | 0.00 | 0.00 | 56 | 1013.6 |
| 20260506150019 | 14 | 326 | 6.4 | 17.7 | 0.00 | 0.00 | 0.00 | 56 | 1013.8 |
| 20260506144517 | 15 | 340 | 4.8 | 22.5 | 0.00 | 0.00 | 0.00 | 55 | 1013.8 |
| 20260506143011 | 15 | 298 | 4.8 | 14.5 | 0.00 | 0.00 | 0.00 | 54 | 1013.7 |
| 20260506141506 | 15 | 50 | 6.4 | 22.5 | 0.00 | 0.00 | 0.00 | 54 | 1013.7 |
| 20260506140003 | 15 | 64 | 6.4 | 19.3 | 0.00 | 0.00 | 0.00 | 53 | 1013.7 |
| 20260506134557 | 16 | 15 | 6.4 | 16.1 | 0.00 | 0.00 | 0.00 | 52 | 1013.7 |
| 20260506133052 | 15 | 348 | 4.8 | 24.1 | 0.00 | 0.00 | 0.00 | 54 | 1013.7 |
| 20260506131553 | 15 | 339 | 6.4 | 19.3 | 0.00 | 0.00 | 0.00 | 53 | 1013.6 |
| 20260506130044 | 15 | 339 | 12.9 | 25.7 | 0.00 | 0.00 | 0.00 | 51 | 1013.7 |
| 20260506124539 | 15 | 348 | 6.4 | 27.4 | 0.00 | 0.00 | 0.00 | 51 | 1013.6 |
| 20260506123035 | 15 | 52 | 6.4 | 25.7 | 0.00 | 0.00 | 0.00 | 50 | 1013.6 |
| 20260506121529 | 15 | 342 | 6.4 | 20.9 | 0.00 | 0.00 | 0.00 | 50 | 1013.7 |
| 20260506120025 | 15 | 358 | 8.0 | 20.9 | 0.00 | 0.00 | 0.00 | 49 | 1013.7 |
| 20260506114526 | 15 | 343 | 12.9 | 25.7 | 0.00 | 0.00 | 0.00 | 50 | 1013.7 |
| 20260506113029 | 15 | 43 | 11.3 | 22.5 | 0.00 | 0.00 | 0.00 | 50 | 1013.9 |
| 20260506111513 | 14 | 79 | 11.3 | 24.1 | 0.00 | 0.00 | 0.00 | 52 | 1013.9 |
| 20260506110008 | 14 | 312 | 6.4 | 24.1 | 0.00 | 0.00 | 0.00 | 53 | 1013.9 |
| 20260506104502 | 13 | 22 | 8.0 | 19.3 | 0.00 | 0.00 | 0.00 | 54 | 1014.0 |
| 20260506103058 | 13 | 19 | 12.9 | 22.5 | 0.00 | 0.00 | 0.00 | 56 | 1014.0 |
| 20260506101553 | 12 | 297 | 8.0 | 17.7 | 0.00 | 0.00 | 0.00 | 59 | 1014.0 |